GAOFEN-1 04

Last updated on Thu Oct 30 2025 00:02:32 GMT+0000 (Coordinated Universal Time)

1 43262U 18031D 25302.49182080 .00001332 00000+0 19907-3 0 9991 2 43262 98.0871 0.2945 0001838 111.0627 249.0779 14.76428084408644
UTC large
Height (km)
Speed (km/s)
/
Latitude / Longitude
Inclination (degrees)
Orbital Period (minutes)
Azimuth
Elevation
Range (km)
Doppler Factor

Next 0 passes for location: London (51.5072 / 0.1276)

Sorry there are no passes over London.